Location: Berlijn
(52.5200°N, 13.4050°E)
Time: 06:48:26
(UTC+02:00)

Envisat - Pass Details

Date: 30 September 2021
Orbit: 764 x 766 km, 98.2° (Epoch: 26 October)

Event Time Altitude Azimuth Distance (km) Brightness Sun altitude
Rises 06:08:27 0° 17° (NNE) 3,246 6.6 -9.6°
Reaches altitude 10° 06:10:49 10° 21° (NNE) 2,315 5.9 -9.2°
Maximum altitude 06:15:51 59° 101° (E) 886 3.7 -8.4°
Drops below altitude 10° 06:20:51 10° 181° (S) 2,297 5.4 -7.7°
Sets 06:23:11 0° 185° (S) 3,218 6.1 -7.3°
